Regional Weather Roundup
Issued by NWS

Home | Current Version | Previous Version | Graphics & Text | Print | Product List | Glossary On
Versions: 1 2 3 4 5 6 7 8 9 10 11 12 13 14 15 16 17 18 19 20 21 22 23 24 25 26 27 28 29 30 31 32 33 34 35 36 37 38 39 40 41 42 43 44 45 46 47 48 49 50
000
ASUS43 KFSD 251210
RWRSD

WEATHER ROUNDUP FOR SOUTH DAKOTA
NATIONAL WEATHER SERVICE SIOUX FALLS SD
700 AM CDT THU AUG 25 2016

NOTE: "FAIR" INDICATES FEW OR NO CLOUDS BELOW 12,000 FEET WITH NO
SIGNIFICANT WEATHER AND/OR OBSTRUCTIONS TO VISIBILITY.


SDZ001>005-009-010-012>017-251300-
NORTHWEST AND NORTH CENTRAL SOUTH DAKOTA

CITY           SKY/WX    TMP DP  RH WIND       PRES   REMARKS
BUFFALO          N/A     46  44  93 NW12      30.18R
FAITH            N/A     47  44  90 W10       30.21R
MOBRIDGE       CLEAR     54  47  77 W15       30.13S
$$

SDZ012>016-024>037-041>051-057-063-072>074-251300-
SOUTHWEST AND SOUTH CENTRAL SOUTH DAKOTA

CITY           SKY/WX    TMP DP  RH WIND       PRES   REMARKS
RAPID CTY ARPT CLOUDY    54  41  61 NW7       30.25R
PIERRE         CLEAR     52  47  83 NW8       30.18R
CUSTER         LGT RAIN  48  40  73 W8        30.31R
ELLSWORTH AFB  CLOUDY    54  41  61 NW12      30.24R
PHILIP         CLOUDY    52  47  83 W6        30.23R
PINE RIDGE     CLOUDY    51  49  92 CALM      30.27R
WINNER         FAIR      51  46  83 NW6       30.20S
$$

SDZ004>011-016>023-039-040-251300-
NORTHEAST SOUTH DAKOTA

CITY           SKY/WX    TMP DP  RH WIND       PRES   REMARKS
ABERDEEN       CLEAR     48  45  89 SW7       30.11S
WATERTOWN      CLEAR     55  49  80 W10       30.10R
BROOKINGS      CLOUDY    53  50  89 NW5       30.11R
SISSETON         N/A     56  50  80 NW10      30.05R
$$

SDZ017-020-022-023-036>040-048>070-251300-
SOUTHEAST SOUTH DAKOTA

CITY           SKY/WX    TMP DP  RH WIND       PRES   REMARKS
SIOUX FALLS    CLOUDY    59  53  80 N3        30.11R
HURON          CLEAR     50  47  89 MISG      30.14R
CHAMBERLAIN    CLEAR     56  50  81 NW6       30.18R
MITCHELL       CLOUDY    53  49  86 NW7       30.15R
YANKTON        CLOUDY    59  52  77 NW12      30.11R
$$

ABBREVIATIONS USED IN REMARKS
   TC - TEMPERATURE IN CELSIUS
  WCI - WIND CHILL INDEX
   HX - HEAT INDEX
  VSB - VISIBILITY





USA.gov is the U.S. government's official web portal to all federal, state and local government web resources and services.